Regional Weather Roundup
Issued by NWS Grand Forks, ND

Home | Current Version | Previous Version | Graphics & Text | Print | Product List | Glossary On
Versions: 1 2 3 4 5 6 7 8 9 10 11 12 13 14 15 16 17 18 19 20 21 22 23 24 25 26 27 28 29 30 31 32 33 34 35 36 37 38 39 40 41 42 43 44 45 46 47 48 49 50
000
ASUS43 KFGF 131731
RWRFGF
PRAIRIE TO PINES  WEATHER ROUNDUP
NATIONAL WEATHER SERVICE EASTERN NORTH DAKOTA/GRAND FORKS ND
1100 AM CST WED DEC 13 2017

 **SATELLITE DATA USED TO AUGMENT SKY COVER AT AUTOMATED STATIONS**
 *****  WEATHER ACROSS EASTERN NORTH DAKOTA  *****

CITY           SKY/WX    TMP DP  RH WIND       PRES   REMARKS
GRAND FORKS    CLOUDY    27  24  89 N26G37    29.79R WCI  12
GRAND FRKS AFB CLOUDY    27  25  92 N17G24    29.79R WCI  14
GRAND FRKS NWS   N/A     27 N/A N/A N13         N/A  WCI  16
DEVILS LAKE    CLOUDY    32  28  86 NW15      29.83R WCI  22
FARGO          CLOUDY    28  25  88 N23G31    29.79R WCI  14
WAHPETON ARPT    N/A     30  23  74 N22G32    29.76S WCI  17
$$

 ***** WEATHER ACROSS CENTRAL AND WESTERN NORTH DAKOTA  *****

CITY           SKY/WX    TMP DP  RH WIND       PRES   REMARKS
BISMARCK       CLOUDY    36  28  73 NW25      29.94R
MINOT          CLOUDY    36  27  69 NW21      29.92R
JAMESTOWN      CLOUDY    32  29  88 N15       29.81R WCI  22
MINOT AFB      CLOUDY    35  27  72 NW18G28   29.91R WCI  24
GARRISON         N/A     33  26  75 NW24G36   29.93R WCI  20
WILLISTON      FAIR      37  27  67 NW15G28   30.03R
DICKINSON      FAIR      34  26  72 NW21      29.98R WCI  22
HETTINGER      FAIR      37  26  64 NW25G35   30.00R
$$

 *****  OTHER AIRPORT OBSERVATIONS IN OUR AREA  *****

CITY           SKY/WX    TMP DP  RH WIND       PRES   REMARKS
WALHALLA       MIX PCPN  25  25 100 N21G26    29.83R WCI  10
GRAFTON AIRPOR CLOUDY    25  25 100 N22G30    29.83R FOG     WCI  10
VALLEY CITY AR DRIZZLE   30  30 100 N24G31    29.81R WCI  16
CANDO          CLOUDY    34  32  93 N17       29.85R WCI  23
CAVALIER APRT  CLOUDY    23  21  93 N24G32    29.82R WCI   7
GWINNER          N/A     34  27  75 N18G25    29.81R WCI  23
ROLLA          LGT RAIN  30  30 100 N20       29.83S WCI  18
 ***** THE ABOVE OBSERVATIONS ARE NON NWS ARE NOT QUALITY
       CONTROLLED AND MAY MIS-REPORT RAIN FOR SNOW...
$$

  *****  WEATHER ACROSS NORTHERN MINNESOTA  *****

CITY           SKY/WX    TMP DP  RH WIND       PRES   REMARKS
FLAG ISLAND    LGT SNOW  12   9  85 N9        29.75R WCI   0
WARROAD        FLURRIES  16  12  86 N8        29.76R WCI   5
ROSEAU         LGT SNOW  18  12  79 N12       29.76R WCI   5
HALLOCK        CLOUDY    23  19  86 N17       29.80R WCI   9
THF RVR FALLS  MIX PCPN  20  17  88 N20       29.75R FOG     WCI   4
BAUDETTE       CLOUDY    16  10  77 N10       29.72R WCI   4
WASKISH        FLURRIES  16  12  86 N7        29.70R WCI   6
CROOKSTON      CLOUDY    23  21  93 N20G30    29.78R WCI   8
STEPHEN NDAWN    N/A     21  19  93 N14         N/A  WCI   8
GREENBUSH NDAW   N/A     18  16  93 N13         N/A  WCI   4
$$
  *****  WEATHER ACROSS CENTRAL AND WEST MINNESOTA  *****

CITY           SKY/WX    TMP DP  RH WIND       PRES   REMARKS
FOSSTON        CLOUDY    18  16  93 N13       29.73R FOG     WCI   4
BEMIDJI        FLURRIES  17  14  88 N10       29.68R WCI   4
PARK RAPIDS    CLOUDY    20  16  84 N17G25    29.65R WCI   5
ELBOW LAKE     CLOUDY    26  23  88 NW24G35   29.73R WCI  11
WADENA         CLOUDY    21  19  93 NW18G25   29.66R WCI   6
DETROIT LAKES  CLOUDY    23  21  93 N22G37    29.71R WCI   8
MOORHEAD       CLOUDY    27  23  86 N25       29.78R WCI  11
FERGUS FALLS   CLOUDY    27  25  93 N25G36    29.75R WCI  11
MORRIS MN      CLOUDY    28  25  86 N33G44    29.70R WCI  12
STAPLES        CLOUDY    21  18  86 NW17G24   29.65R WCI   7
$$
  *****  WEATHER ELSEWHERE ACROSS MINNESOTA  *****

CITY           SKY/WX    TMP DP  RH WIND       PRES   REMARKS
DULUTH         LGT SNOW  21  18  88 NE13G20   29.55R FOG     WCI   9
INTRNTL FALLS  CLOUDY    17  10  74 NE8       29.70R HAZE    WCI   7
ELY            LGT SNOW  16  12  86 NE8       29.61S WCI   5
CLOQUET        FLURRIES  23  18  80 N12G18    29.55R WCI  12
WHEATON        CLOUDY    30  25  80 NW24G32   29.78R WCI  16
BRAINERD       CLOUDY    20  15  81 N17G26    29.63R WCI   5
HIBBING        LGT SNOW  19  15  84 N9        29.60R FOG     WCI   8
ALEXANDRIA     CLOUDY    26  22  84 NW17G30   29.66R WCI  13
SAINT CLOUD    CLOUDY    24  19  81 N18G24    29.60R WCI  10
MINNEAPOLIS    CLOUDY    25  20  81 N24G35    29.56R WCI   9
$$

  *****  WEATHER ACROSS SOUTH DAKOTA  *****

CITY           SKY/WX    TMP DP  RH WIND       PRES   REMARKS
SIOUX FALLS    CLOUDY    39  32  76 NW28G35   29.77R
BROOKINGS      CLOUDY    36  28  73 NW29      29.72S
WATERTOWN      CLOUDY    34  30  85 NW21G31   29.76R WCI  22
HURON          CLOUDY    39  30  70 NW30G37   29.84R
SISSETON         N/A     34  30  85 N26G35    29.76R WCI  21
ABERDEEN       CLOUDY    37  29  72 NW24G32   29.85R
MITCHELL       CLOUDY    40  30  67 N24G36    29.87R
PIERRE         FAIR      42  29  59 NW23G36   29.93R
MOBRIDGE       CLOUDY    40  29  64 NW20G29   29.89R
RAPID CITY     FAIR      44  21  40 NW30G45   30.04R
$$

  *****  SOME WEATHER IN NEARBY STATES *****

CITY           SKY/WX    TMP DP  RH WIND       PRES   REMARKS
GLASGOW MT     FAIR      32  25  75 W7        30.13R
GREAT FALLS MT FAIR      31  17  56 SW9       30.24R WCI  23
CHEYENNE WY    FAIR      41  10  28 N9        30.16S
SCOTTSBLUFF NE FAIR      45  15  30 W20       30.15R
OMAHA NE       FAIR      51  29  42 NW31G44   29.74R
DES MOINES IA  CLOUDY    42  35  76 NW30G44   29.60R
DAVENPORT IA   FAIR      42  26  53 W22G29    29.38F
CHICAGO IL     CLOUDY    33  20  58 S14G23    29.36F WCI  23
EAU CLAIRE WI  CLOUDY    22  17  81 N8        29.45R WCI  12
LA CROSSE WI   CLOUDY    31  22  69 N8        29.38R WCI  23
$$

  *****  SOME NATIONAL WEATHER *****

CITY           SKY/WX    TMP DP  RH WIND       PRES   REMARKS
LA GUARDIA NY  PTSUNNY   28   9  44 NW23G41   29.55S WCI  14
RALEIGH NC     PTSUNNY   37   3  24 W9        29.95F
ATLANTA GA     FAIR      40  12  32 W9        30.05F
NEW ORLEANS LA PTSUNNY   55  33  43 S8        30.17F
OKLAHOMA CITY  FAIR      57  19  22 N13       29.97R
ALBUQUERQUE NM FAIR      38   4  24 NW3       30.21S
SALT LAKE CITY CLOUDY    23  21  92 W5        30.36F FOG     WCI  17
LOS ANGELES CA FAIR      70  13  11 CALM      30.03R
BOISE ID       CLOUDY    23  21  92 W8        30.46R FOG     WCI  14
SEATTLE WA     FAIR      40  33  76 VRB5      30.43R
$$

*** WEATHER ACROSS MANITOBA...SASKATCHEWAN AND ONTARIO ***
                ***ONTARIO***

CITY           SKY/WX    TMP DP  RH WIND       PRES   REMARKS
GERALDTON      FLURRIES  -6 -11  77 NE7       29.79F WCI -20
THUNDER BAY    PTSUNNY   12   5  73 NE20      29.76R WCI  -6
SIOUX LOOKOUT  PTSUNNY    5   0  78 E5        29.75R WCI  -4
TORONTO        MOSUNNY   18   3  53 NW13G20   29.69F WCI   4
BIG TROUT LK   SUNNY    -17 -22  76 CALM      29.93S
PICKLE LAKE    CLOUDY    -9 -15  77 VRB2      29.82R FOG
DRYDEN         MOSUNNY    9   5  85 NE9       29.73R WCI  -5
KENORA         FLURRIES  10   7  85 N7        29.74R WCI   0
$$
                *** MANITOBA***

CITY           SKY/WX    TMP DP  RH WIND       PRES   REMARKS
BRANDON        PTSUNNY   30  25  80 NE17      29.87R WCI  18
DAUPHIN        CLOUDY    19  18  93 N8        29.93R WCI   9
ISLAND LAKE    MOSUNNY   -8 -15  71 SE5       29.92S WCI -19
PILOT MOUND      N/A     27  25  93 N16G23      N/A  WCI  14
THE PAS        CLOUDY    14   9  79 N5        29.95R WCI   6
THOMPSON       MOCLDY    -8 -13  77 CALM      29.96S
WINNIPEG       FLURRIES  19  14  79 N18       29.84R WCI   4
LYNN LAKE      CLEAR     -2  -4  92 NW3       29.91R
CHURCHILL      MOCLDY   -18 -24  76 W6        30.00F WCI -33
GILLAM         PTCLDY   -18 -24  76 SW2       29.98
$$
                ***SASKATCHEWAN***

CITY           SKY/WX    TMP DP  RH WIND       PRES   REMARKS
ESTEVAN        CLOUDY    32  27  80 NW17G26   29.99R WCI  21
KINDERSLEY     PTCLDY    32  27  80 W9        30.10S WCI  24
LLOYDMINSTER   MOCLDY    34  28  80 W15       30.05R WCI  24
PRINCE ALBERT  PTCLDY    28  23  80 W7        30.00S WCI  21
REGINA         MOSUNNY   32  27  80 NW12      30.01R WCI  23
YORKTON        CLOUDY    32  27  80 NW16G22   29.91R WCI  21
N. BATTLEFORD  CLEAR     30  25  80 W7        30.07R WCI  23
LA RONGE       CLOUDY    27  23  86 W3        29.95R
SASKATOON      PTSUNNY   30  27  86 W13       30.04S WCI  20
SWIFT CURRENT  PTSUNNY   28  25  86 W17G24    30.08S WCI  16
$$
NOTE: THESE ARE AUTOMATED STATIONS WITH LIMITED QUALITY CONTROL
      "FAIR" INDICATES FEW OR NO CLOUDS BELOW 12,000 FEET WITH NO
      SIGNIFICANT WEATHER AND/OR OBSTRUCTIONS TO VISIBILITY.
      SKY/WX - SKY CONDITION AND SIGNIFICANT WEATHER.
      TMP - AIR TEMPERATURE.    DP   - DEWPOINT TEMPERATURE.
      RH  - RELATIVE HUMIDITY.  PRES - PRESSURE.
      HX  - HEAT INDEX.         WCI  - WIND CHILL INDEX.
$




USA.gov is the U.S. government's official web portal to all federal, state and local government web resources and services.